TimeCDT,TemperatureF,Dew PointF,Humidity,Sea Level PressureIn,VisibilityMPH,Wind Direction,Wind SpeedMPH,Gust SpeedMPH,PrecipitationIn,Events,Conditions,WindDirDegrees,DateUTC
12:56 AM,63.9,59.0,84,29.92,10.0,SSW,16.1,-,N/A,,Clear,210,2012-10-24 05:56:00
1:56 AM,63.9,57.9,81,29.92,10.0,SSW,16.1,-,N/A,,Clear,210,2012-10-24 06:56:00
2:56 AM,63.9,57.9,81,29.92,10.0,SSW,16.1,-,N/A,,Clear,210,2012-10-24 07:56:00
3:56 AM,61.9,56.8,84,29.93,10.0,SSW,13.8,-,N/A,,Clear,210,2012-10-24 08:56:00
4:56 AM,63.0,56.8,80,29.93,10.0,SSW,12.7,-,N/A,,Clear,210,2012-10-24 09:56:00
5:56 AM,59.9,56.8,90,29.95,10.0,SSW,11.5,-,N/A,,Clear,210,2012-10-24 10:56:00
6:56 AM,57.9,55.9,93,29.96,10.0,SSW,8.1,-,N/A,,Clear,200,2012-10-24 11:56:00
7:56 AM,59.9,56.8,90,29.96,10.0,South,9.2,-,N/A,,Scattered Clouds,180,2012-10-24 12:56:00
8:56 AM,61.9,57.9,87,29.97,10.0,South,13.8,-,N/A,,Mostly Cloudy,190,2012-10-24 13:56:00
9:56 AM,66.9,59.9,78,29.97,10.0,SSW,13.8,-,N/A,,Mostly Cloudy,200,2012-10-24 14:56:00
10:56 AM,70.0,61.0,73,29.96,10.0,SSW,17.3,-,N/A,,Mostly Cloudy,200,2012-10-24 15:56:00
11:56 AM,70.0,61.9,75,29.96,10.0,SSW,11.5,-,N/A,,Overcast,200,2012-10-24 16:56:00
12:56 PM,73.9,63.9,71,29.92,10.0,South,16.1,-,N/A,,Mostly Cloudy,190,2012-10-24 17:56:00
1:06 PM,73.4,64.4,73,29.94,10.0,SSW,16.1,-,N/A,,Partly Cloudy,210,2012-10-24 18:06:00
1:56 PM,75.9,64.9,69,29.89,10.0,South,17.3,-,N/A,,Clear,190,2012-10-24 18:56:00
2:56 PM,77.0,64.9,66,29.88,10.0,South,17.3,-,N/A,,Clear,190,2012-10-24 19:56:00
3:56 PM,77.0,65.8,68,29.86,10.0,SSW,21.9,-,N/A,,Clear,200,2012-10-24 20:56:00
4:56 PM,75.9,64.9,69,29.86,10.0,South,18.4,-,N/A,,Partly Cloudy,190,2012-10-24 21:56:00
5:56 PM,72.9,63.9,73,29.88,10.0,South,15.0,-,N/A,,Clear,180,2012-10-24 22:56:00
6:56 PM,70.0,63.9,81,29.90,10.0,South,12.7,-,N/A,,Clear,180,2012-10-24 23:56:00
7:56 PM,68.0,63.9,87,29.89,10.0,South,12.7,-,N/A,,Clear,170,2012-10-25 00:56:00
8:56 PM,66.9,63.0,87,29.88,10.0,South,17.3,-,N/A,,Clear,180,2012-10-25 01:56:00
9:56 PM,65.8,61.9,87,29.87,10.0,South,17.3,-,N/A,,Clear,180,2012-10-25 02:56:00
10:56 PM,65.8,61.0,84,29.87,10.0,South,19.6,-,N/A,,Clear,190,2012-10-25 03:56:00
11:56 PM,64.9,59.9,84,29.86,10.0,South,17.3,-,N/A,,Clear,190,2012-10-25 04:56:00